GW1475 Weather Reports


time (UTC)temp
F
wind
direction
speed
knots
gust
knots
rain 1hr
in
rain 24hr
in
rain mn
in
humidity
%
barometer
mb
20260504141236 58 134 2.6 2.6 0.00 0.00 0.00 78 1009.8
20260504140653 57 93 2.6 2.6 0.00 0.00 0.00 79 1009.8
20260504130633 55 153 1.7 2.6 0.00 0.00 0.00 78 1009.1
20260504110627 42 182 0.0 0.0 0.00 0.00 0.00 99 1008.8
20260504081815 43 134 0.0 0.0 0.00 0.00 0.00 99 1009.8
20260504081216 43 133 0.0 0.0 0.00 0.00 0.00 99 1009.4
20260504080626 43 134 0.0 0.0 0.00 0.00 0.00 99 1009.4
20260504045417 47 140 0.0 0.0 0.00 0.00 0.00 89 1011.1
20260504044831 47 141 0.0 0.0 0.00 0.00 0.00 90 1010.8
20260504044221 47 140 0.0 0.0 0.00 0.00 0.00 90 1010.8
20260504043642 47 141 0.0 0.0 0.00 0.00 0.00 89 1010.8
20260504043048 47 140 0.0 0.0 0.00 0.00 0.00 88 1010.8
20260504042431 47 139 0.0 0.0 0.00 0.00 0.00 87 1010.8
20260504041228 48 141 0.0 0.0 0.00 0.00 0.00 86 1010.4
20260504040644 48 141 0.0 0.0 0.00 0.00 0.00 86 1010.8
20260504040030 48 139 0.0 0.0 0.00 0.00 0.00 85 1010.8
20260504035428 48 139 0.9 0.9 0.00 0.00 0.00 84 1010.8
20260504034215 48 141 0.0 0.9 0.00 0.00 0.00 85 1010.4
20260504033612 48 140 0.0 0.0 0.00 0.00 0.00 83 1010.8
20260504033036 48 141 0.0 0.0 0.00 0.00 0.00 84 1010.8
20260504031244 48 126 1.7 1.7 0.00 0.00 0.00 82 1010.4
20260504030018 48 180 0.0 0.0 0.00 0.00 0.00 85 1010.8
20260504025414 48 180 0.0 0.0 0.00 0.00 0.00 85 1010.8
20260504024824 48 179 0.9 0.9 0.00 0.00 0.00 84 1010.8
20260504024220 48 180 0.0 0.0 0.00 0.00 0.00 84 1010.8
20260504023633 48 181 0.9 0.9 0.00 0.00 0.00 83 1010.4
20260504023027 48 179 0.0 0.0 0.00 0.00 0.00 82 1010.4
20260504022437 48 180 0.0 0.0 0.00 0.00 0.00 82 1010.4
20260504021834 48 182 0.0 0.9 0.00 0.00 0.00 82 1010.8
20260504020620 49 167 0.9 0.9 0.00 0.00 0.00 81 1010.1
20260504020020 49 167 0.0 0.0 0.00 0.00 0.00 80 1009.8
20260504015443 49 167 0.0 0.0 0.00 0.00 0.00 80 1010.4
20260504014826 49 167 0.0 0.0 0.00 0.00 0.00 80 1010.1
20260504014244 49 167 0.0 0.0 0.00 0.00 0.00 80 1010.1
20260504013650 49 167 0.0 0.0 0.00 0.00 0.00 79 1009.8
20260504012412 49 167 0.0 0.0 0.00 0.00 0.00 80 1010.1
20260504011837 50 167 0.9 0.9 0.00 0.00 0.00 79 1009.8
20260504011214 50 167 0.0 0.0 0.00 0.00 0.00 78 1009.8
20260504010635 50 167 0.0 0.0 0.00 0.00 0.00 77 1009.4
20260504010049 50 167 0.0 0.0 0.00 0.00 0.00 76 1010.1
20260504005438 50 166 0.0 0.0 0.00 0.00 0.00 76 1010.1
20260504004247 51 166 0.0 0.0 0.00 0.00 0.00 73 1010.1
20260504003614 52 124 0.0 0.0 0.00 0.00 0.00 72 1010.1
20260504003040 52 120 0.0 0.0 0.00 0.00 0.00 71 1009.8
20260504002436 53 124 0.0 0.0 0.00 0.00 0.00 69 1009.8
20260504001818 53 145 0.9 0.9 0.00 0.00 0.00 67 1009.8
20260504001219 54 143 0.9 0.9 0.00 0.00 0.00 66 1009.8
20260504000654 54 122 0.0 0.9 0.00 0.00 0.00 63 1009.8
20260504000042 55 216 0.9 0.9 0.00 0.00 0.00 63 1009.8
20260503235412 56 166 0.0 0.0 0.00 0.00 0.00 62 1010.1
20260503234815 56 175 0.0 0.0 0.00 0.00 0.00 60 1009.8
20260503234236 57 168 0.0 0.0 0.00 0.00 0.00 57 1009.8
20260503233627 58 97 0.0 0.0 0.00 0.00 0.00 56 1009.4
20260503233035 59 154 0.0 0.0 0.00 0.00 0.00 53 1009.8
20260503232447 60 274 0.9 0.9 0.00 0.00 0.00 51 1010.1
20260503231818 62 185 0.0 0.9 0.00 0.00 0.00 47 1009.8
20260503231252 62 13 0.9 1.7 0.00 0.00 0.00 43 1010.1
20260503230636 62 104 2.6 3.5 0.00 0.00 0.00 39 1009.8
20260503230041 65 226 0.0 0.0 0.00 0.00 0.00 38 1010.1
20260503224223 64 267 0.9 0.9 0.00 0.00 0.00 37 1010.1
20260503223614 64 126 5.2 6.1 0.00 0.00 0.00 34 1010.4
20260503223014 64 75 0.9 1.7 0.00 0.00 0.00 35 1010.4
20260503222422 66 110 2.6 3.5 0.00 0.00 0.00 35 1010.4
20260503221820 64 250 0.9 0.9 0.00 0.00 0.00 37 1010.4
20260503221224 65 132 5.2 7.0 0.00 0.00 0.00 34 1010.1
20260503220654 64 271 1.7 2.6 0.00 0.00 0.00 35 1010.4
20260503220044 64 18 3.5 3.5 0.00 0.00 0.00 33 1010.4
20260503215439 64 62 1.7 2.6 0.00 0.00 0.00 37 1010.4
20260503214810 64 211 0.9 0.9 0.00 0.00 0.00 35 1010.4
20260503214224 64 150 4.3 5.2 0.00 0.00 0.00 35 1010.4
20260503213647 66 154 1.7 1.7 0.00 0.00 0.00 33 1010.8
20260503212440 64 217 0.9 1.7 0.00 0.00 0.00 33 1010.4
20260503211827 64 46 3.5 3.5 0.00 0.00 0.00 35 1010.8
20260503211227 64 30 2.6 3.5 0.00 0.00 0.00 32 1010.4
20260503210647 63 85 1.7 1.7 0.00 0.00 0.00 34 1010.8
20260503210017 64 71 4.3 7.0 0.00 0.00 0.00 34 1010.8
20260503205430 65 183 6.1 7.0 0.00 0.00 0.00 32 1010.8
20260503204242 64 70 0.9 0.9 0.00 0.00 0.00 33 1010.8
20260503203038 64 341 4.3 6.1 0.00 0.00 0.00 33 1011.1
20260503202422 63 75 0.9 1.7 0.00 0.00 0.00 33 1011.1
20260503201816 63 49 4.3 7.0 0.00 0.00 0.00 34 1011.1
20260503201234 63 105 5.2 6.1 0.00 0.00 0.00 34 1011.1
20260503200625 64 133 6.1 7.0 0.00 0.00 0.00 33 1011.5
20260503200026 62 117 4.3 5.2 0.00 0.00 0.00 34 1011.8
20260503195409 62 121 5.2 6.1 0.00 0.00 0.00 34 1011.8
20260503194821 62 128 3.5 3.5 0.00 0.00 0.00 35 1012.1
20260503194241 63 83 0.9 1.7 0.00 0.00 0.00 35 1011.8
20260503193621 63 203 2.6 2.6 0.00 0.00 0.00 33 1012.1
20260503193043 62 338 5.2 6.1 0.00 0.00 0.00 34 1012.1
20260503192436 62 128 3.5 5.2 0.00 0.00 0.00 34 1012.1
20260503191842 62 113 7.0 7.8 0.00 0.00 0.00 35 1012.5
20260503191249 63 163 5.2 6.1 0.00 0.00 0.00 36 1012.5
20260503190636 63 260 4.3 5.2 0.00 0.00 0.00 36 1012.8
20260503190052 62 41 1.7 2.6 0.00 0.00 0.00 36 1012.8
20260503185423 62 170 2.6 2.6 0.00 0.00 0.00 36 1012.8
20260503184846 61 222 2.6 2.6 0.00 0.00 0.00 38 1013.2
20260503184216 60 276 3.5 5.2 0.00 0.00 0.00 35 1013.2
20260503183031 60 22 3.5 3.5 0.00 0.00 0.00 36 1013.5
20260503182446 61 188 3.5 6.1 0.00 0.00 0.00 35 1013.5
20260503181853 61 334 3.5 3.5 0.00 0.00 0.00 34 1013.5
20260503181236 61 165 1.7 2.6 0.00 0.00 0.00 37 1013.8
20260503180651 62 355 2.6 2.6 0.00 0.00 0.00 38 1013.5
20260503180026 61 19 1.7 2.6 0.00 0.00 0.00 36 1013.5
20260503175417 59 155 2.6 2.6 0.00 0.00 0.00 36 1013.8
20260503174820 59 346 7.0 7.8 0.00 0.00 0.00 37 1014.2
20260503174213 60 13 4.3 6.1 0.00 0.00 0.00 37 1013.8
20260503173628 59 52 1.7 1.7 0.00 0.00 0.00 40 1013.8
20260503173035 58 23 2.6 2.6 0.00 0.00 0.00 39 1013.8
20260503172413 59 94 1.7 1.7 0.00 0.00 0.00 39 1014.2
20260503171814 58 352 0.9 0.9 0.00 0.00 0.00 38 1014.5
20260503171254 58 325 3.5 3.5 0.00 0.00 0.00 39 1014.5
20260503150630 54 49 0.9 0.9 0.00 0.00 0.00 43 1015.9